TIME,DELAY(SENSOR),PRES,OXYGEN,RAWTEMP,T(OPTODE),TCPHASE,FLUOR,BETA(BETA700),BETA(BETA412),BETA(BETA440),CDOM,C(CSC),ED(ED412.20),ED(ED444.00),ED(ED489.60),ED(ED554.30),LU(LU412.10),LU(LU443.90),LU(LU489.70),LU(LU554.70),COMP,TILTX,TILTY,CHECK
1369971751,5808,856.1500244140625000,30.4783592224121100,558.9420776367188000,4.5186772346496580,57.0047187805175800,55,100,100,79,80,15633,0,0,0,0,2147122715,2147772041,2147567954,2147567890,1100,2,13,28964
1369975347,5810,922.8400268554688000,36.9223594665527340,566.9453125000000000,4.2704491615295410,56.0479011535644500,55,100,99,78,81,15631,0,0,0,0,2147123291,2147768438,2147571401,2147568027,924,2,13,46271
1369978947,5808,934.0700073242188000,33.9729881286621100,568.1765136718750000,4.2322139739990230,56.5273094177246100,55,98,101,77,81,15627,0,0,0,0,2147124681,2147768749,2147568228,2147569106,3126,2,13,55578
1369982547,5807,969.6300048828125000,35.0203514099121100,570.7875976562500000,4.1510829925537110,56.3885383605957000,55,97,99,78,80,15626,0,0,0,0,2147123465,2147759890,2147571008,2147566180,2699,2,13,35650
1369986147,5809,975.2399902343750000,35.0322113037109400,570.3782958984375000,4.1638050079345700,56.3805809020996100,54,97,101,77,81,15630,0,0,0,0,2147122148,2147762386,2147574098,2147563483,204,2,13,47521
1369989747,5810,975.4199829101562000,37.7966995239257800,571.0465698242188000,4.1430320739746090,55.9605484008789060,55,99,99,78,82,15623,0,0,0,0,2147127113,2147772900,2147573796,2147562907,3404,2,13,47899
1369993347,5808,975.1500244140625000,36.5430717468261700,571.5878295898438000,4.1262068748474120,56.1560516357421900,54,97,99,78,81,15625,0,0,0,0,2147125174,2147766500,2147568109,2147566226,3546,2,13,47377
1369996947,5811,981.7399902343750000,37.0004005432128900,571.1868896484375000,4.1386718750000000,56.0847511291503900,55,98,101,78,81,15625,0,0,0,0,2147122660,2147769517,2147567689,2147569426,3554,2,13,6072
1370000547,5812,978.0300292968750000,35.5517807006835940,571.2031860351562000,4.1381649971008300,56.3080101013183600,56,96,100,78,82,15625,0,0,0,0,2147124818,2147766674,2147570569,2147566418,29,2,13,33983
1370004147,5809,980.4699707031250000,34.2996711730957000,571.5905761718750000,4.1261219978332520,56.5047912597656250,55,98,99,77,82,15624,0,0,0,0,2147124306,2147765394,2147568475,2147564745,36,2,13,8941
1370007747,5811,977.8300170898438000,35.8452491760253900,571.8615722656250000,4.1176948547363280,56.2666587829589840,54,101,100,77,81,15619,0,0,0,0,2147125878,2147767497,2147573888,2147566317,368,3,13,63682
1370011347,5811,977.1099853515625000,37.3333892822265600,572.0297241210938000,4.1124691963195800,56.0370597839355500,55,98,99,77,81,15624,0,0,0,0,2147124251,2147769618,2147572105,2147568356,850,2,13,62876
1370014947,5808,973.6799926757812000,37.7238998413085940,572.8306884765625000,4.0875592231750490,55.9867286682128900,54,98,99,78,82,15622,0,0,0,0,2147125010,2147767945,2147570806,2147565120,481,2,13,27083
1370018547,5809,979.3400268554688000,36.5364990234375000,572.6538696289062000,4.0930581092834470,56.1705818176269500,55,97,100,77,81,15622,0,0,0,0,2147125366,2147767369,2147565403,2147565961,3296,2,13,42585
1370022147,5808,977.1799926757812000,36.1399002075195300,572.9282836914062000,4.0845241546630860,56.2339782714843750,55,96,100,78,81,15622,0,0,0,0,2147124608,2147768548,2147573357,2147563776,449,2,13,44869
1370025747,5809,980.7500000000000000,37.6086196899414060,572.5825805664062000,4.0952758789062500,56.0078201293945300,55,99,99,78,81,15619,0,0,0,0,2147124059,2147768676,2147571392,2147566144,3148,2,13,1884
1370029347,5810,979.5200195312500000,37.2660408020019500,572.7745971679688000,4.0893058776855470,56.0590095520019500,54,98,100,78,80,15622,0,0,0,0,2147123227,2147767360,2147570294,2147566400,61,2,13,55799
1370032947,5811,984.9099731445312000,39.3029403686523440,572.8317871093750000,4.0875258445739750,55.7521591186523440,55,97,98,79,80,15620,0,0,0,0,2147123245,2147768886,2147577691,2147564864,3290,2,13,57285
1370036547,5809,988.3800048828125000,40.5491600036621100,572.7766113281250000,4.0892429351806640,55.5608100891113300,54,98,100,78,81,15620,0,0,0,0,2147125321,2147769654,2147573348,2147564361,3323,2,13,39745
1370040147,5808,988.3800048828125000,36.4461784362793000,571.8034057617188000,4.1195049285888670,56.1763191223144500,56,98,99,78,81,15619,0,0,0,0,2147123748,2147766665,2147569124,2147567012,165,3,13,59259
1370043747,5810,983.4000244140625000,37.4025001525878900,571.6204833984375000,4.1251931190490720,56.0289497375488300,54,98,98,77,81,15619,0,0,0,0,2147124004,2147768493,2147570660,2147563510,110,2,13,8543
1370047347,5812,984.1099853515625000,38.0576782226562500,571.5269775390625000,4.1280989646911620,55.9216613769531250,54,98,100,78,81,15619,0,0,0,0,2147126902,2147768027,2147572809,2147568137,29,2,13,58826
1370050947,5810,987.0900268554688000,38.1058692932128900,571.7470092773438000,4.1212577819824220,55.9180183410644500,55,96,100,78,81,15618,0,0,0,0,2147125860,2147767689,2147569088,2147564297,3527,2,13,63758
1370054547,5811,982.9600219726562000,37.6203193664550800,572.7139282226562000,4.0911917686462400,55.9996910095214840,54,96,100,77,81,15617,0,0,0,0,2147126061,2147774482,2147571501,2147566208,3363,2,13,55510
1370058147,5809,987.7899780273438000,39.8063392639160160,572.6029052734375000,4.0946450233459470,55.6707801818847660,55,98,100,76,82,15617,0,0,0,0,2147123254,2147769773,2147571364,2147563401,349,3,13,17393
1370061747,5810,987.7800292968750000,39.9064903259277340,572.1182250976562000,4.1097178459167480,55.6543693542480500,55,98,98,78,80,15618,0,0,0,0,2147123017,2147769398,2147569289,2147561965,3492,2,13,14838
1370065347,5811,986.9400024414062000,37.2506103515625000,572.4417114257812000,4.0996570587158200,56.0549507141113300,55,98,99,77,81,15616,0,0,0,0,2147127158,2147775515,2147572681,2147564955,13,2,13,56466
1370068947,5812,992.7299804687500000,37.8618011474609400,571.8651733398438000,4.1175842285156250,55.9620590209960940,55,97,99,78,80,15617,0,0,0,0,2147126272,2147770788,2147571099,2147563373,4,2,13,23458
1370072547,5811,995.1500244140625000,38.2261886596679700,571.8344116210938000,4.1185421943664550,55.8997688293457000,55,98,100,78,81,15616,0,0,0,0,2147122614,2147767808,2147571483,2147564251,15,2,13,16247
1370076147,5813,986.2399902343750000,38.9378013610839840,572.5358886718750000,4.0967268943786620,55.7994003295898440,54,97,99,77,81,15616,0,0,0,0,2147124992,2147766619,2147573083,2147565156,3541,2,13,63573
1370079747,5812,983.0200195312500000,39.0820693969726560,572.7830200195312000,4.0890460014343260,55.7814483642578100,55,100,100,79,82,15604,0,0,0,0,2147124004,2147767405,2147569828,2147564086,3379,2,13,61864
1370083347,5810,986.4500122070312000,38.5049285888671900,573.0493164062500000,4.0807609558105470,55.8711891174316400,54,99,99,77,81,15612,0,0,0,0,2147123538,2147772480,2147568914,2147565357,52,3,13,58166
1370086947,5813,984.7700195312500000,39.0276107788085940,572.7141723632812000,4.0911850929260250,55.7914390563964840,54,97,100,78,81,15611,0,0,0,0,2147125604,2147767204,2147570806,2147565568,31,2,13,40495
1370090547,5809,985.8200073242188000,37.9066696166992200,573.2714843750000000,4.0738511085510250,55.9630699157714840,56,99,99,78,81,15612,0,0,0,0,2147125312,2147770029,2147572690,2147565659,2630,2,13,459
1370094147,5810,984.8200073242188000,37.6783790588378900,573.8466796875000000,4.0559601783752440,56.0056686401367200,55,97,99,77,81,15609,0,0,0,0,2147123510,2147771785,2147571538,2147564626,3441,2,13,41443
1370097747,5812,988.7899780273438000,39.9639205932617200,573.0261230468750000,4.0814862251281740,55.6534004211425800,54,99,99,78,81,15610,0,0,0,0,2147126893,2147768768,2147574363,2147566966,3429,2,13,7455
1370101347,5813,985.9299926757812000,38.4017181396484400,573.1975708007812000,4.0761489868164060,55.8922309875488300,55,97,100,78,81,15609,0,0,0,0,2147123849,2147770633,2147573878,2147562496,205,3,13,19388
1370104947,5807,986.6599731445312000,40.2612609863281250,574.0676269531250000,4.0490889549255370,55.6187896728515600,55,97,98,77,80,15611,0,0,0,0,2147124105,2147770422,2147570660,2147565074,3186,2,13,36455
1370108547,5810,988.6400146484375000,38.5827598571777340,573.1677246093750000,4.0770797729492190,55.8585586547851560,54,98,100,77,81,15586,0,0,0,0,2147123181,2147769545,2147571465,2147562870,181,2,13,16391
1370112147,5810,993.5999755859375000,37.3960189819335940,571.9874267578125000,4.1137847900390625,56.0334510803222660,54,98,100,79,80,15605,0,0,0,0,2147126299,2147766226,2147573376,2147562825,3175,2,13,10679
1370115747,5809,993.1699829101562000,38.8669815063476560,571.6956787109375000,4.1228518486022950,55.8070411682128900,54,96,100,78,82,15606,0,0,0,0,2147125083,2147767634,2147568475,2147565238,2840,2,13,52795
1370116857,5813,991.6699829101562000,39.4804115295410160,572.1599121093750000,4.1084232330322270,55.7186088562011700,55,100,99,78,81,15605,0,0,0,0,2147127241,2147767497,2147570486,2147565001,2840,2,13,58347
